Location: Wells
(51.2093°N, 2.6446°W)
Time: 06:44:21
(UTC+01:00)

PCSat - Pass Details

Date: 13 March 2026
Orbit: 780 x 790 km, 67.1° (Epoch: 13 April)

Event Time Altitude Azimuth Distance (km) Brightness Sun altitude
Exits shadow 01:34:50 21° 4° (N) 1,739 11.8 -39.3°
Drops below altitude 10° 01:37:15 10° 26° (NNE) 2,365 12.7 -39.1°
Sets 01:40:04 0° 39° (NE) 3,297 13.7 -38.9°
